World > North America > United States > Pennsylvania

Hourly Edenburg, PA Regional Weather

Feedback E-mail the Weather

Quick WX

Edenburg, PA Weather Maps

°F °C°F °C
Edenburg Weather Map
UTC Time: 6/28/2022, 18:02
Your Time:

Edenburg, PA Regional Weather

Expires:202206281800;;339040
ASUS41 KPHI 281714
RWRPHI

REGIONAL WEATHER ROUNDUP
NATIONAL WEATHER SERVICE MOUNT HOLLY NJ
100 PM EDT TUE JUN 28 2022

NOTE:  "FAIR" INDICATES FEW OR NO CLOUDS BELOW 12,000 FEET WITH NO
SIGNIFICANT WEATHER AND/OR OBSTRUCTIONS TO VISIBILITY.

 * = STATION DOES NOT REPORT PRECIPITATION (E.G. RAIN, SNOW, ETC.) 
        OR FOG.


PAZ043-044-047-054-055-060>062-066>071-281800-
EASTERN PENNSYLVANIA
  
CITY           SKY/WX    TMP DP  RH WIND       PRES   REMARKS
PHILADELPHIA   MOSUNNY   78  49  35 NW10      30.18R                  
NORTH PHILA    MOSUNNY   77  51  40 NW10      30.19S                  
BLUE BELL*     MOSUNNY   74  54  48 N3        30.19S                  
DOYLESTOWN     MOSUNNY   75  50  41 MISG      30.18S                  
QUAKERTOWN*    SUNNY     73  50  43 VRB5G12   30.20R                  
PERKASIE*      PTSUNNY   72  52  49 CALM      30.20S                  
POTTSTOWN      PTSUNNY   72  50  45 VRB3      30.20F                  
LANCASTER      MOSUNNY   75  50  41 CALM      30.20S                  
COATESVILLE    MOSUNNY   73  50  43 NW9       30.22S                  
WEST CHESTER   FAIR      75  46  35 NW6       30.20S                  
READING        MOSUNNY   75  50  41 MISG      30.19S                  
ALLENTOWN      SUNNY     73  51  46 N7        30.19S                  
QN CITY/ALNTWN FAIR      73  50  43 N3        30.21R                  
MOUNT POCONO   MOSUNNY   67  49  52 NW12G17   30.21S                  
HAZLETON       SUNNY     68  48  49 NW6       30.25S                  
LEHIGHTON      FAIR      72  46  40 N6        30.20S                  
WILKES BARRE   MOSUNNY   73  51  46 NW8       30.21S                  

$$

SKY/WX - Weather  TMP - Temperature  DP - Dew Point  RH - Humidity
WIND - Wind Direction/Speed PRES - Barometric Pressure VSB - Visibility
WCI - Wind Chill Index E13G22 Wind - East Wind 13 mph/Gusts of 22 mph

Trending Headlines

Edenburg Radar Loop



Edenburg Quick Facts


National Two Day Weather Forecast


E-mail the Edenburg Weather Forecast

Voice your opinion or tell us about page issues...